Location: Triton
(47.6048°N, 122.9899°W)
Time: 04:46:54
(UTC+00:00)

ARIANE 6 FM1 Upper Stage - Visible Passes

Search period start: 14 February 2026 00:00
Search period end: 24 February 2026 00:00
Orbit: 522 x 609 km, 62.0° (Epoch: 11 February)

Date Brightness Start Highest point End Pass type
(mag) Time Alt. Az. Time Alt. Az. Time Alt. Az.
14 Feb 3.2 03:17:25 10° NNW 03:21:08 37° NE 03:21:13 37° NE visible
14 Feb 5.6 04:56:34 10° WNW 04:57:15 14° WNW 04:57:15 14° WNW visible
15 Feb 2.7 03:17:19 10° NW 03:21:12 50° NE 03:21:41 47° ENE visible
15 Feb 5.6 04:56:51 10° WNW 04:57:43 14° WNW 04:57:43 14° WNW visible
16 Feb 2.4 03:17:14 10° NW 03:21:12 71° NE 03:22:14 46° ESE visible
16 Feb 5.6 04:57:23 10° W 04:58:17 13° W 04:58:17 13° W visible
17 Feb 2.5 03:17:13 10° NW 03:21:10 82° SW 03:22:57 31° SE visible
17 Feb 5.7 04:58:53 10° WSW 04:59:01 10° WSW 04:59:01 10° WSW visible
18 Feb 3.1 03:17:12 10° NW 03:21:06 57° SW 03:23:52 18° SSE visible
19 Feb 3.9 03:17:17 10° NW 03:20:59 39° SW 03:24:41 10° SSE visible
20 Feb 4.6 03:17:27 10° WNW 03:20:50 27° WSW 03:24:13 10° S visible
21 Feb 5.2 03:17:46 10° WNW 03:20:37 19° WSW 03:23:28 10° SSW visible
22 Feb 5.6 03:18:26 10° W 03:20:23 13° WSW 03:22:19 10° SW visible
